星链-36173(STARLINK-36173)

导读

STARLINK-36173是美国SpaceX星链互联网星座的卫星,于2025年12月17日发射升空,归入美国太空技术探索公司打造的巨型低轨卫星星座组网体系,承担全球范围低延迟高速卫星互联网服务的覆盖补充任务,服务地面移动通信、偏远地区联网等应用场景,是星链持续扩容星座网络的新增组网节点。

基本信息
目录编号:
67210
目录名称:
STARLINK-36173
国际标识:
2025-304U
轨道中心:
EARTH
卫星名称:
星链-36173
卫星全名:
星链-36173(STARLINK-36173)
卫星状态:
在轨 (已飞行270 天)
发射日期:
2025-12-17 UTC
国别 :
美国 (US)
星等 :
--
该卫星已列入 空间交会检测服务 Space Conjunction Data Service (SCDS) ,当前飞行风险评估等级: 无高风险
轨道信息
数据来源 国际轨道数据 AOE轨道数据
星历时间 2026-09-13T05:04:48+0800
9小时前
查看轨道信息
2026-09-11T11:00:00+0800
2天前
查看轨道信息
半长轴 6950.207km 6950.138km
偏心率 0.0002715 0.0002424
轨道倾角 70.001° 70.002°
近地点辐角 267.395° 256.891°
升交点赤经 62.493° 66.911°
平近点角 92.689° 8.530°
近地点 570.183km 570.316km
远地点 573.957km 573.686km
周期 96.107分钟 96.106分钟
每日圈数 14.983256 14.98348
详细信息
固有亮度:
5
最大亮度:
2.5
卫星平台:
Starlink V1.0
覆盖范围:
全球
运营商:
太空探索技术公司
运营商所在国:
美国
制造商(研发单位):
太空探索技术公司
制造商所在国:
美国
使用方式:
暂无
卫星简介
Starlink 计划是 SpaceX 推出的全球卫星互联网项目,通过发射低轨道卫星,为全球尤其是偏远地区提供高速、低延迟的互联网服务。自 2019 年起,Starlink 已部署数千颗卫星,旨在缩小全球数字鸿沟,推动互联网普及。该项目还为军事、航空等行业提供通信支持,带来广泛经济效益。
2D轨道图
3D轨道图
轨道高度分析图
轨道倾角分析图
轨道综合分析图
查看轨道综合分析图
交会数据列表
事件ID 空间交会对象 最接近时刻(TCA) 交会距离 交会风险概率(CRP) 交会风险指数(CRI) 操作
CDM_260912-090704-435806-721021
2026-09-12T
09:07:03+0000
1.042 km
极远距离
1.278692E-5 中风险 0.57
与全量物体交会距离演化趋势
与全量物体交会风险概率演化趋势